Simultaneous Nadir Overpasses (SNOs) Predictions

Prediction of SNOs between AURA and NPP Satellite Orbit:

Table of predicted SNOs for the next 14.0 days since TLE Epoch: 6/8/2024
Index Date (AURA) Time (AURA) Lat,Lon (AURA) SZA (AURA ) Date (NPP) Time (NPP) Lat,Lon (NPP) SZA (NPP ) Distance(km) Time Diff (sec)
1 06/08/2024 18:42:17 -80.61, -11.81 112.44 06/08/2024 18:41:40 -80.61, -11.87 112.41 1.15 37
2 06/08/2024 19:31:37 80.70, 156.83 67.40 06/08/2024 19:32:20 80.70, 156.97 67.34 2.65 43
3 06/11/2024 08:26:30 80.65, -37.47 67.33 06/11/2024 08:26:13 80.65, -37.34 67.32 2.45 17
4 06/11/2024 09:15:52 -80.70, 130.83 112.78 06/11/2024 09:16:56 -80.70, 130.77 112.82 1.19 64
5 06/13/2024 21:22:25 78.23, 111.29 70.86 06/13/2024 21:21:12 78.53, 109.69 71.10 48.38 73
6 06/13/2024 22:10:43 -80.66, -63.28 112.84 06/13/2024 22:10:48 -80.67, -63.26 112.84 0.43 5
7 06/16/2024 11:05:33 -80.58, 102.11 112.76 06/16/2024 11:04:41 -80.58, 101.99 112.70 2.31 52
8 06/16/2024 11:54:52 80.69, -89.05 67.05 06/16/2024 11:55:21 80.68, -89.22 67.06 3.12 29
9 06/19/2024 00:49:41 80.61, 76.45 67.15 06/19/2024 00:49:14 80.61, 76.28 67.20 3.05 27
10 06/19/2024 01:39:02 -80.71,-114.84 113.03 06/19/2024 01:39:55 -80.71,-114.92 113.05 1.31 53



Historial Predications of SNOs between AURA and NPP
